Home > Weather > Shenzhen > Past weeks

Flag for China Weather for the Past 2 Weeks in Shenzhen, Guangdong, China

Now
70 °F

Scattered clouds.


Feels Like: 70 °F
Forecast: 69 / 76 °F
Wind: 10 mph from Southwest

Location: Shenzhen Airport

Current Time: Feb 12, 2016 at 4:08:30 PM

Latest Report: Feb 12, 2016 at 3:00 PM


Visibility: N/A

Pressure: 29.86 "Hg

Humidity: 83%

Dew point: 64 °F

Location of ShenzhenLocation

Historic Weather in Shenzhen — Graph

°F

Shenzhen Temperature Yesterday

Maximum temperature yesterday: 68 °F (at 1:00 PM)
Minimum temperature yesterday: 59 °F (at 2:00 AM)
Average temperature yesterday: 64 °F

High & Low Weather Summary for the Past Weeks

 TemperatureHumidityPressure
High70 °F (Feb 8, 12:00 PM)100% (Jan 28, 3:00 PM)30.36 "Hg (Jan 28, 3:00 PM)
Low45 °F (Feb 2, 8:00 AM)17% (Feb 7, 1:00 PM)29.86 "Hg (Feb 12, 3:00 PM)
Average58 °F70%30.15 "Hg
* Reported Jan 28 3:00 PM — Feb 12 3:00 PM, Shenzhen, Weather by CustomWeather, © 2016

Note: Actual official high and low records may vary slightly from our data, if they occured in-between our weather recording intervals... More about our weather records

Advertising

Shenzhen Weather History for the Previous 24 Hours

 ConditionsComfort  
Time TempWeatherWind HumidityBarometerVisibility
3:00 PM
Fri, Feb 12
70 °FScattered clouds.10 mph83%29.86 "HgN/A
2:00 PM70 °FBroken clouds.8 mph83%29.89 "HgN/A
1:00 PM70 °FSunny.6 mph78%29.92 "Hg10 mi
12:00 PM70 °FPassing clouds.6 mph83%29.95 "HgN/A
11:00 AM68 °FPassing clouds.6 mph83%29.95 "HgN/A
10:00 AM64 °FPartly sunny.3 mph94%29.98 "Hg4 mi
9:00 AM63 °FFog.1 mph100%29.98 "Hg2 mi
8:00 AM61 °FFog.1 mph100%29.95 "Hg2 mi
7:00 AM63 °FFog.3 mph94%29.95 "Hg2 mi
5:00 AM63 °FFog.No wind94%29.92 "Hg3 mi
4:00 AM63 °FFog.3 mph100%29.92 "Hg2 mi
3:00 AM63 °FFog.3 mph94%29.92 "Hg3 mi
2:00 AM68 °FPassing clouds.6 mph88%29.92 "HgN/A
1:00 AM68 °FPassing clouds.8 mph88%29.92 "HgN/A
12:00 AM70 °FPassing clouds.6 mph83%29.92 "HgN/A
11:00 PM
Thu, Feb 11
64 °FPassing clouds.1 mph94%29.92 "Hg4 mi
10:00 PM63 °FPassing clouds.3 mph94%29.92 "Hg4 mi
9:00 PM63 °FFog.6 mph94%29.92 "Hg2 mi
8:00 PM64 °FFog.6 mph94%29.92 "Hg3 mi
7:00 PM64 °FFog.6 mph94%29.92 "Hg2 mi
6:00 PM68 °FPartly sunny.1 mph83%29.92 "Hg4 mi
5:00 PM68 °FPartly sunny.1 mph83%29.89 "Hg4 mi
4:00 PM68 °FFog.6 mph83%29.89 "Hg3 mi
Weather by CustomWeather, © 2016

See weather overviewHow to use our weather pages